Home > Weather > Brønnøysund > Past weeks

Flag for Norway Weather for the Past 2 Weeks in Brønnøysund, Norway

Now
54 °F

Sunny.


Feels Like: 51 °F
Forecast: 45 / 52 °F
Wind: 9 mph from East

Location: Bronnoysund / Bronnoy

Current Time: May 5, 2016 at 11:28:37 AM

Latest Report: May 5, 2016 at 10:50 AM


Visibility: 10 mi

Pressure: 30.12 "Hg

Humidity: 54%

Dew Point: 37 °F

Location of BrønnøysundLocation

Historic Weather in Brønnøysund — Graph

°F

Brønnøysund Temperature Yesterday

Maximum temperature yesterday: 52 °F (at 1:20 PM)
Minimum temperature yesterday: 43 °F (at 1:20 AM)
Average temperature yesterday: 47 °F

High & Low Weather Summary for the Past Weeks

 TemperatureHumidityPressure
High63 °F (May 3, 2:50 PM)100% (Apr 22, 10:20 PM)30.24 "Hg (Apr 22, 10:20 PM)
Low30 °F (Apr 23, 12:50 AM)36% (Apr 25, 1:20 PM)29.62 "Hg (Apr 21, 5:50 PM)
Average44 °F65%29.93 "Hg
* Reported Apr 20 9:20 AM — May 5 9:50 AM, Brønnøysund, Weather by CustomWeather, © 2016

Note: Actual official high and low records may vary slightly from our data, if they occured in-between our weather recording intervals... More about our weather records

Advertising

Brønnøysund Weather History for the Previous 24 Hours

Scroll right to see more
 ConditionsComfort  
Time TempWeatherWind HumidityBarometerVisibility
9:50 AM
Thu, May 5
55 °FSunny.6 mph47%30.15 "Hg10 mi
9:20 AM57 °FPassing clouds.6 mph39%30.15 "HgN/A
8:50 AM54 °FPartly sunny.9 mph44%30.15 "HgN/A
8:20 AM52 °FPassing clouds.10 mph47%30.15 "HgN/A
7:50 AM50 °FPartly sunny.12 mph50%30.15 "HgN/A
7:20 AM50 °FOvercast.14 mph50%30.15 "HgN/A
6:50 AM50 °FMostly cloudy.14 mph50%30.15 "HgN/A
6:20 AM50 °FOvercast.14 mph50%30.15 "HgN/A
5:50 AM50 °FMostly cloudy.16 mph50%30.15 "HgN/A
5:20 AM50 °FPartly sunny.14 mph50%30.15 "HgN/A
4:50 AM50 °FPassing clouds.15 mph50%30.15 "HgN/A
4:20 AM50 °FOvercast.17 mph50%30.15 "HgN/A
3:50 AM50 °FOvercast.18 mph54%30.15 "HgN/A
3:20 AM50 °FOvercast.17 mph50%30.15 "HgN/A
2:50 AM50 °FOvercast.17 mph54%30.15 "HgN/A
2:20 AM48 °FOvercast.17 mph58%30.15 "HgN/A
1:50 AM48 °FPartly cloudy.16 mph62%30.15 "HgN/A
1:20 AM48 °FCool.10 mph62%30.18 "HgN/A
12:50 AM46 °FCool.7 mph62%30.18 "HgN/A
12:20 AM46 °FCool.7 mph62%30.18 "HgN/A
11:50 PM
Wed, May 4
46 °FCool.7 mph66%30.21 "HgN/A
11:20 PM45 °FQuite cool.7 mph71%30.21 "HgN/A
10:50 PM43 °FQuite cool.7 mph76%30.21 "HgN/A
10:20 PM43 °FSunny.7 mph81%30.21 "Hg10 mi
9:50 PM45 °FPassing clouds.3 mph71%30.21 "HgN/A
9:20 PM45 °FPassing clouds.3 mph76%30.24 "HgN/A
8:50 PM46 °FSunny.5 mph66%30.24 "Hg10 mi
8:20 PM48 °FSunny.6 mph62%30.24 "Hg10 mi
7:50 PM48 °FSunny.8 mph66%30.24 "Hg10 mi
7:20 PM48 °FSunny.9 mph66%30.24 "Hg10 mi
6:50 PM48 °FSunny.9 mph66%30.24 "Hg10 mi
6:20 PM50 °FSunny.12 mph62%30.24 "Hg10 mi
5:50 PM50 °FPassing clouds.14 mph67%30.24 "HgN/A
5:20 PM50 °FPassing clouds.15 mph62%30.24 "HgN/A
4:50 PM50 °FPassing clouds.16 mph62%30.24 "HgN/A
4:20 PM52 °FPassing clouds.14 mph58%30.24 "HgN/A
3:50 PM52 °FPassing clouds.16 mph58%30.24 "HgN/A
3:20 PM52 °FPassing clouds.15 mph58%30.24 "HgN/A
2:50 PM52 °FPassing clouds.20 mph58%30.24 "HgN/A
2:20 PM52 °FPassing clouds.16 mph58%30.24 "HgN/A
1:50 PM52 °FScattered clouds.17 mph62%30.24 "HgN/A
1:20 PM52 °FScattered clouds.14 mph62%30.21 "HgN/A
12:50 PM50 °FScattered clouds.13 mph67%30.21 "HgN/A
12:20 PM50 °FScattered clouds.15 mph62%30.21 "HgN/A
11:50 AM48 °FPartly sunny.14 mph71%30.18 "HgN/A
11:20 AM48 °FPartly sunny.15 mph71%30.18 "HgN/A
Weather by CustomWeather, © 2016

See weather overviewHow to use our weather pages